星链-32030 (STARLINK-32030)

导读

STARLINK-32030是美国SpaceX公司星链星座的一员,于北京时间2024年10月15日发射入轨。星链星座依托低轨卫星组网,将地面通信技术搬入太空,通过相控阵窄波束、OFDM传输与星间激光链路实现低时延高带宽互联网服务。作为全球规模最大的低轨卫星互联网星座,它可为全球提供宽带接入,推动直连手机等新兴卫星应用落地,也引发全球对空间资源利用与外太空安全的广泛讨论。

Basic Information
目录编号:
61513
目录名称:
STARLINK-32030
国际标识:
2024-183E
轨道中心:
EARTH
卫星名称:
星链-32030
卫星全名:
星链-32030 (STARLINK-32030)
卫星状态:
在轨 (已飞行696 天)
发射日期:
2024-10-15 UTC
国别 :
美国 (US)
星等 :
--
This satellite is enrolled in the Space Conjunction Data Service (SCDS) and the current flight risk assessment level is: High Risk
Orbit Information
数据来源 国际轨道数据
星历时间: 2026-09-11T14:44:53+0800
12小时前
查看轨道信息
半长轴: 6840.927km
偏心率: 0.0001018
轨道倾角: 53.159°
近地点辐角 78.671°
升交点赤经 358.537°
平近点角 281.440°
近地点: 462.093km
远地点: 463.487km
周期: 93.850分钟
每日圈数: 15.343709
Detailed Information
固有亮度:
5
最大亮度:
2.5
卫星平台:
Starlink V1.0
覆盖范围:
全球
运营商:
太空探索技术公司
运营商所在国:
美国
制造商(研发单位):
太空探索技术公司
制造商所在国:
美国
使用方式:
暂无
Satellite Introduction
Starlink 计划是 SpaceX 推出的全球卫星互联网项目,通过发射低轨道卫星,为全球尤其是偏远地区提供高速、低延迟的互联网服务。自 2019 年起,Starlink 已部署数千颗卫星,旨在缩小全球数字鸿沟,推动互联网普及。该项目还为军事、航空等行业提供通信支持,带来广泛经济效益。
2D Orbit Map
3D Orbit Map
Orbit Altitude Analysis Chart
Orbit Inclination Analysis Chart
Orbit Comprehensive Analysis Chart
View Comprehensive Chart
Conjunction Data List
Event ID Objects TCA Miss Dist (km) Collision Risk Probability Collision Risk Index (CRI) Action
CDM_260914-011506-151306-833521
2026-09-14T
01:15:11+0000
0.527 km
远距离
1.604424E-4 高风险 0.79
CDM_260914-032506-151306-586821
2026-09-14T
03:25:42+0000
0.854 km
远距离
3.949421E-5 中风险 0.67
CDM_260913-153105-815106-151321
2026-09-13T
15:31:45+0000
1.016 km
极远距离
1.622843E-5 中风险 0.59
CDM_260913-085006-151306-833521
2026-09-13T
08:50:22+0000
1.133 km
极远距离
1.52133E-5 中风险 0.59
CDM_260913-021405-815106-151321
2026-09-13T
02:14:30+0000
1.117 km
极远距离
1.165324E-5 中风险 0.56
CDM_260913-004005-815106-151321
2026-09-13T
00:40:43+0000
1.202 km
极远距离
9.039595E-6 低风险 0.54
CDM_260913-070606-151306-503721
2026-09-13T
07:06:49+0000
1.379 km
极远距离
7.64102E-6 低风险 0.53
CDM_260913-071606-151306-833521
2026-09-13T
07:16:34+0000
1.620 km
极远距离
4.574399E-6 低风险 0.48
CDM_260913-135705-815106-151321
2026-09-13T
13:57:58+0000
1.713 km
极远距离
2.880819E-6 低风险 0.44
CDM_260913-202406-151306-503721
2026-09-13T
20:24:02+0000
2.070 km
极远距离
2.288671E-6 低风险 0.42
Miss Distance Evolution Trend with All Objects
Collision Probability Evolution Trend with All Objects